Location: *
(50.9167°S, 179.4000°W)
Time: 04:44:56
(UTC+00:00)

ATLAS 2AS CENTAUR R/B - Pass Details

Date: 20 June 2024
Orbit: 1019 x 1192 km, 63.7° (Epoch: 21 July)

Event Time Altitude Azimuth Distance (km) Brightness Sun altitude
Exits shadow 14:06:08 12° 139° (SE) 2,862 5.3 -53.2°
Drops below altitude 10° 14:06:38 10° 138° (SE) 3,029 5.5 -53.2°
Sets 14:09:28 0° 133° (SE) 4,016 6.3 -52.8°
